DW5656 Weather Reports


time (UTC)temp
F
wind
direction
speed
knots
gust
knots
rain 1hr
in
rain 24hr
in
rain mn
in
humidity
%
barometer
mb
20260901230912 78 230 3.5 7.0 0.00 0.00 0.00 60 1018.2
20260901230012 78 215 3.5 6.1 0.00 0.00 0.00 60 1018.2
20260901225112 78 217 3.5 6.1 0.00 0.00 0.00 61 1018.2
20260901224212 78 222 2.6 6.1 0.00 0.00 0.00 62 1018.1
20260901223333 78 221 2.6 4.3 0.00 0.00 0.00 62 1018.0
20260901222412 78 228 2.6 4.3 0.00 0.00 0.00 63 1018.0
20260901221511 79 227 1.7 4.3 0.00 0.00 0.00 63 1018.0
20260901220612 79 244 1.7 4.3 0.00 0.00 0.00 64 1018.1
20260901215712 79 243 0.9 3.5 0.00 0.00 0.00 64 1018.1
20260901214833 78 237 0.9 2.6 0.00 0.00 0.00 65 1018.1
20260901213911 78 247 2.6 3.5 0.00 0.00 0.00 66 1018.3
20260901213011 78 252 2.6 7.0 0.00 0.00 0.00 66 1018.4
20260901212111 78 220 3.5 5.2 0.00 0.00 0.00 66 1018.2
20260901211211 79 225 3.5 8.7 0.00 0.00 0.00 65 1018.1
20260901210311 80 229 4.3 7.0 0.00 0.00 0.00 64 1017.9
20260901205411 81 229 4.3 12.2 0.00 0.00 0.00 62 1017.8
20260901204511 82 224 4.3 9.6 0.00 0.00 0.00 61 1017.5
20260901203611 83 226 4.3 10.4 0.00 0.00 0.00 61 1017.4
20260901202712 83 229 3.5 9.6 0.00 0.00 0.00 61 1017.1
20260901201811 84 224 3.5 7.0 0.00 0.00 0.00 62 1016.9
20260901200911 85 226 3.5 8.7 0.00 0.00 0.00 60 1016.7
20260901200011 86 222 4.3 8.7 0.00 0.00 0.00 53 1016.6
20260901195111 88 228 4.3 10.4 0.00 0.00 0.00 45 1016.2
20260901193826 90 237 3.5 8.7 0.00 0.00 0.00 41 1015.8
20260901192925 90 247 4.3 8.7 0.00 0.00 0.00 40 1015.5
20260901192026 90 259 3.5 9.6 0.00 0.00 0.00 39 1015.3
20260901191125 91 266 4.3 7.8 0.00 0.00 0.00 39 1015.1
20260901190225 91 263 4.3 9.6 0.00 0.00 0.00 39 1014.9
20260901185325 92 264 4.3 8.7 0.00 0.00 0.00 38 1014.8
20260901184425 92 266 4.3 7.8 0.00 0.00 0.00 38 1014.8
20260901183546 93 268 4.3 9.6 0.00 0.00 0.00 37 1014.7
20260901182625 94 269 6.1 9.6 0.00 0.00 0.00 34 1014.5
20260901181725 94 269 4.3 11.3 0.00 0.00 0.00 31 1014.6
20260901180825 95 269 3.5 10.4 0.00 0.00 0.00 30 1014.4
20260901175946 95 282 2.6 7.8 0.00 0.00 0.00 30 1014.3
20260901175025 95 238 2.6 7.0 0.00 0.00 0.00 35 1014.3
20260901174125 95 205 3.5 7.8 0.00 0.00 0.00 39 1014.3
20260901173226 95 222 4.3 7.8 0.00 0.00 0.00 38 1014.3
20260901172325 96 227 3.5 7.8 0.00 0.00 0.00 38 1014.3
20260901171425 96 245 3.5 5.2 0.00 0.00 0.00 36 1014.4
20260901170546 96 258 4.3 7.8 0.00 0.00 0.00 35 1014.3
20260901165646 96 232 2.6 9.6 0.00 0.00 0.00 35 1014.2
20260901164746 97 239 1.7 5.2 0.00 0.00 0.00 36 1014.2
20260901163825 96 238 2.6 7.0 0.00 0.00 0.00 37 1014.3
20260901162946 96 229 3.5 7.8 0.00 0.00 0.00 37 1014.4
20260901162025 96 217 3.5 7.0 0.00 0.00 0.00 37 1014.4
20260901161125 96 243 3.5 7.8 0.00 0.00 0.00 37 1014.4
20260901160225 96 188 3.5 7.8 0.00 0.00 0.00 37 1014.5
20260901155325 95 207 3.5 7.8 0.00 0.00 0.00 38 1014.5
20260901154425 95 200 3.5 7.8 0.00 0.00 0.00 38 1014.6
20260901153525 95 221 5.2 10.4 0.00 0.00 0.00 38 1014.7
20260901152625 94 217 5.2 10.4 0.00 0.00 0.00 38 1014.8
20260901151725 95 221 4.3 9.6 0.00 0.00 0.00 37 1014.9
20260901150825 95 210 3.5 9.6 0.00 0.00 0.00 38 1014.9
20260901145925 95 225 5.2 9.6 0.00 0.00 0.00 39 1014.8
20260901145025 94 212 4.3 12.2 0.00 0.00 0.00 39 1014.9
20260901144146 94 218 4.3 9.6 0.00 0.00 0.00 40 1015.1
20260901143246 93 231 5.2 8.7 0.00 0.00 0.00 42 1015.1
20260901142347 93 245 5.2 10.4 0.00 0.00 0.00 42 1015.2
20260901141425 93 250 5.2 10.4 0.00 0.00 0.00 42 1015.3
20260901140525 93 223 4.3 9.6 0.00 0.00 0.00 41 1015.4
20260901135646 93 222 4.3 8.7 0.00 0.00 0.00 41 1015.5
20260901134726 94 224 3.5 11.3 0.00 0.00 0.00 41 1015.6
20260901133824 93 200 3.5 8.7 0.00 0.00 0.00 42 1015.7
20260901132925 93 214 3.5 9.6 0.00 0.00 0.00 40 1015.8
20260901132025 93 249 1.7 7.8 0.00 0.00 0.00 39 1015.8
20260901131125 93 280 3.5 5.2 0.00 0.00 0.00 38 1015.9
20260901130224 92 225 3.5 7.0 0.00 0.00 0.00 38 1016.0
20260901125324 93 276 1.7 7.8 0.00 0.00 0.00 37 1015.9
20260901124424 92 262 2.6 8.7 0.00 0.00 0.00 38 1015.9
20260901123524 92 291 2.6 8.7 0.00 0.00 0.00 38 1016.1
20260901122624 92 251 2.6 6.1 0.00 0.00 0.00 37 1016.2
20260901121745 91 160 1.7 6.1 0.00 0.00 0.00 38 1016.3
20260901120824 91 229 1.7 5.2 0.00 0.00 0.00 37 1016.4
20260901115924 90 220 2.6 6.1 0.00 0.00 0.00 39 1016.6
20260901115024 89 212 2.6 5.2 0.00 0.00 0.00 39 1016.5
20260901114124 89 215 1.7 6.1 0.00 0.00 0.00 39 1016.6
20260901113224 88 260 1.7 7.0 0.00 0.00 0.00 40 1016.7
20260901112345 87 292 2.6 5.2 0.00 0.00 0.00 40 1016.8
20260901111424 87 265 1.7 7.0 0.00 0.00 0.00 40 1016.8
20260901110524 87 307 1.7 4.3 0.00 0.00 0.00 40 1016.8
20260901105624 86 328 2.6 4.3 0.00 0.00 0.00 40 1016.9
20260901104724 86 286 1.7 5.2 0.00 0.00 0.00 40 1017.1
20260901103824 86 298 0.9 2.6 0.00 0.00 0.00 40 1017.1
20260901102924 85 277 1.7 4.3 0.00 0.00 0.00 41 1017.1
20260901102024 86 218 0.9 4.3 0.00 0.00 0.00 41 1017.1
20260901101125 86 210 0.9 2.6 0.00 0.00 0.00 41 1016.9
20260901100224 85 193 1.7 3.5 0.00 0.00 0.00 42 1017.1
20260901095345 84 225 1.7 4.3 0.00 0.00 0.00 42 1017.0
20260901094424 84 140 1.7 4.3 0.00 0.00 0.00 43 1017.2
20260901093524 83 66 0.9 3.5 0.00 0.00 0.00 44 1017.1
20260901092624 83 58 1.7 3.5 0.00 0.00 0.00 45 1017.1
20260901091745 82 72 1.7 3.5 0.00 0.00 0.00 46 1017.0
20260901090825 81 66 1.7 4.3 0.00 0.00 0.00 47 1016.9
20260901085945 82 75 0.9 2.6 0.00 0.00 0.00 46 1017.0
20260901085024 81 60 0.9 3.5 0.00 0.00 0.00 48 1017.1
20260901084124 80 74 0.9 3.5 0.00 0.00 0.00 49 1017.1
20260901083224 79 28 0.9 2.6 0.00 0.00 0.00 50 1017.1
20260901082324 79 24 0.9 2.6 0.00 0.00 0.00 51 1017.1
20260901081424 78 38 0.9 1.7 0.00 0.00 0.00 50 1017.0
20260901080523 78 53 0.0 1.7 0.00 0.00 0.00 52 1016.9
20260901075624 78 56 0.9 1.7 0.00 0.00 0.00 52 1016.8
20260901074723 77 56 0.9 2.6 0.00 0.00 0.00 52 1016.8
20260901073823 76 55 0.9 3.5 0.00 0.00 0.00 53 1016.8
20260901072944 76 56 1.7 2.6 0.00 0.00 0.00 54 1016.8
20260901072023 75 57 1.7 3.5 0.00 0.00 0.00 54 1016.8
20260901071144 75 57 1.7 2.6 0.00 0.00 0.00 55 1016.7
20260901070223 74 57 1.7 2.6 0.00 0.00 0.00 55 1016.7
20260901065323 74 61 1.7 3.5 0.00 0.00 0.00 56 1016.5
20260901064444 73 51 0.9 3.5 0.00 0.00 0.00 56 1016.4
20260901063544 73 17 0.9 2.6 0.00 0.00 0.00 58 1016.2
20260901062623 72 17 1.7 2.6 0.00 0.00 0.00 59 1016.2
20260901061723 72 36 1.7 2.6 0.00 0.00 0.00 59 1016.0
20260901060823 72 39 1.7 4.3 0.00 0.00 0.00 58 1016.0
20260901055924 72 41 0.9 3.5 0.00 0.00 0.00 58 1016.0
20260901055023 72 85 1.7 3.5 0.00 0.00 0.00 59 1016.0
20260901054123 72 88 1.7 3.5 0.00 0.00 0.00 59 1016.0
20260901053244 72 49 1.7 3.5 0.00 0.00 0.00 61 1015.9
20260901052344 72 3 1.7 3.5 0.00 0.00 0.00 63 1015.9
20260901051423 72 13 3.5 5.2 0.00 0.00 0.00 63 1015.8
20260901050544 72 19 3.5 7.0 0.00 0.00 0.00 62 1015.7
20260901045644 72 37 2.6 5.2 0.00 0.00 0.00 63 1015.7
20260901044723 73 65 1.7 4.3 0.00 0.00 0.00 63 1015.6
20260901043823 73 52 1.7 4.3 0.00 0.00 0.00 64 1015.7
20260901042923 73 46 1.7 3.5 0.00 0.00 0.00 63 1015.7
20260901042023 74 22 1.7 3.5 0.00 0.00 0.00 62 1015.9
20260901041144 74 16 1.7 4.3 0.00 0.00 0.00 62 1016.0
20260901040244 74 13 2.6 4.3 0.00 0.00 0.00 60 1016.0
20260901035323 74 14 2.6 4.3 0.00 0.00 0.00 59 1016.1
20260901034423 74 350 2.6 4.3 0.00 0.00 0.00 58 1016.1
20260901033523 74 3 2.6 4.3 0.00 0.00 0.00 57 1016.1
20260901032623 74 18 2.6 4.3 0.00 0.00 0.00 56 1016.1
20260901031723 74 24 2.6 4.3 0.00 0.00 0.00 59 1016.2
20260901030823 74 3 1.7 6.1 0.00 0.00 0.00 64 1016.1
20260901025923 74 288 0.0 4.3 0.00 0.00 0.00 64 1016.1
20260901025023 74 276 0.0 0.9 0.00 0.00 0.00 64 1016.1
20260901024144 74 0 0.0 0.0 0.00 0.00 0.00 64 1016.2
20260901023223 74 276 0.9 1.7 0.00 0.00 0.00 64 1016.2
20260901022323 74 276 0.9 2.6 0.00 0.00 0.00 64 1016.3
20260901021423 74 276 0.9 2.6 0.00 0.00 0.00 64 1016.3
20260901020544 74 276 1.7 3.5 0.00 0.00 0.00 64 1016.4
20260901015623 74 258 1.7 3.5 0.00 0.00 0.00 65 1016.4
20260901014722 73 255 1.7 3.5 0.00 0.00 0.00 66 1016.4
20260901013823 73 240 1.7 4.3 0.00 0.00 0.00 66 1016.5
20260901012944 73 225 1.7 4.3 0.00 0.00 0.00 66 1016.6
20260901012022 73 219 2.6 4.3 0.00 0.00 0.00 67 1016.6
20260901011122 73 230 1.7 5.2 0.00 0.00 0.00 67 1016.5
20260901010222 73 234 1.7 4.3 0.00 0.00 0.00 66 1016.5
20260901005322 73 231 2.6 6.1 0.00 0.00 0.00 66 1016.5
20260901004422 73 226 3.5 7.8 0.00 0.00 0.00 65 1016.6
20260901003522 73 231 2.6 7.8 0.00 0.00 0.00 64 1016.6
20260901002622 73 240 3.5 6.1 0.00 0.00 0.00 64 1016.6
20260901001722 73 228 4.3 8.7 0.00 0.00 0.00 63 1016.7
20260901000822 74 221 3.5 8.7 0.00 0.00 0.00 61 1016.5
20260831235922 75 237 2.6 7.8 0.00 0.00 0.00 57 1016.4
20260831235022 75 225 1.7 6.1 0.00 0.00 0.00 56 1016.4
20260831234122 76 233 1.7 6.1 0.00 0.00 0.00 54 1016.3
20260831233243 76 218 2.6 6.1 0.00 0.00 0.00 53 1016.2
20260831232322 76 215 2.6 7.0 0.00 0.00 0.00 51 1016.2